Location: Spring Creek
(38.2870°N, 100.2160°W)
Time: 23:55:55
(UTC+00:00)

Cosmos 1242 Rocket - Pass Details

Date: 08 May 2021
Orbit: 446 x 484 km, 81.2° (Epoch: 21 June)

Event Time Altitude Azimuth Distance (km) Brightness Sun altitude
Exits shadow 03:11:20 39° 125° (SE) 733 2.9 -16.5°
Maximum altitude 03:11:58 43° 95° (E) 678 2.9 -16.6°
Drops below altitude 10° 03:15:23 10° 23° (NNE) 1,639 5.4 -17.1°
Sets 03:17:31 0° 17° (NNE) 2,513 6.5 -17.5°
